Temperature
15 15 15 15 15 15 15 15 15 15 15 15 15 15 15 14 14 15 15 15 15 15 15 15 15 15 15 15 15 15 15 15 15 15 15 15 14 15 15 15 15 14 14
15 15 15 15 15 15 15 15 15 15 15 15 15 14 14 14 14 14 14 15 15 15 15 15 15 15 15 14 14 14 15 14 14 14 14 14 14 14 14 14 14 14 14
15 15 15 15 15 15 15 15 15 15 15 14 14 14 14 14 14 14 14 14 14 14 14 14 14 14 14 14 14 14 14 14 14 14 14 14 14 14 14 14 14 14 14
15 15 15 15 15 14 14 14 14 14 14 14 14 14 14 14 14 14 14 14 14 14 14 14 14 14 14 14 14 14 14 14 14 14 14 14 13 14 14 14 14 14 14
15 15 15 14 14 14 14 14 14 14 14 14 14 14 13 14 13 13 13 13 14 14 14 14 14 14 14 14 14 14 13 13 13 13 13 13 13 13 13 13 13 13 13
15 15 14 14 14 14 14 14 14 14 14 14 14 13 13 13 13 13 13 13 13 13 13 13 13 13 14 14 13 13 13 13 13 13 13 13 13 13 13 13 13 13 13
14 14 14 14 14 14 14 14 14 14 14 13 13 13 13 13 13 13 13 13 13 13 13 13 13 13 13 13 13 13 13 13 13 13 13 13 13 13 13 13 13 13 13
14 14 14 14 14 14 14 14 14 13 13 13 13 13 14 13 12 12 13 13 13 12 13 13 13 13 13 13 13 13 13 13 13 13 12 12 12 12 12 12 12 12 12
14 14 14 14 14 14 14 14 14 14 13 13 13 13 14 14 13 12 12 12 12 12 12 12 12 12 12 12 12 12 13 12 12 12 12 12 12 12 12 12 12 12 12
14 14 14 14 14 14 14 13 13 13 13 13 13 13 13 13 13 13 12 12 12 12 12 12 12 12 12 12 12 12 12 12 12 12 12 12 12 12 12 12 12 12 12
14 14 14 14 14 14 14 14 13 13 13 13 13 13 13 13 13 13 13 12 12 12 12 12 12 12 12 12 12 12 12 12 12 12 12 12 12 12 11 11 11 11 11
14 14 14 14 14 14 14 14 13 13 13 13 13 13 13 13 13 13 13 12 12 11 11 11 11 11 11 11 11 12 12 12 12 12 11 11 11 11 11 11 11 11 11
14 14 14 14 14 13 13 13 13 13 13 13 13 13 13 13 13 12 13 12 12 11 11 11 11 11 11 11 11 11 11 11 11 11 11 11 11 11 11 11 11 11 11
14 14 14 14 14 13 13 13 13 13 13 13 13 13 13 13 12 12 12 12 12 12 11 11 11 11 11 11 11 11 11 11 11 11 11 11 11 11 11 11 11 11 10
14 14 14 14 14 13 13 13 13 13 13 13 13 13 13 13 12 12 12 12 12 13 12 11 11 11 11 11 11 10 10 11 11 11 11 11 11 11 11 11 11 10 10
14 14 14 14 13 13 13 13 13 13 13 13 13 13 13 12 12 12 12 12 12 12 12 11 11 11 11 10 11 10 10 10 11 10 11 10 10 10 10 10 10 10 10
14 14 14 14 13 13 13 13 13 13 13 13 13 13 12 12 12 12 12 12 12 12 12 11 11 11 10 10 10 10 10 10 10 10 10 10 10 10 10 10 10 10 10
14 14 14 14 13 13 13 13 13 13 13 13 13 12 12 12 12 12 12 12 12 11 11 11 11 11 10 10 10 10 10 10 10 10 10 10 10 10 10 10 10 10 10
14 14 14 13 13 13 13 13 13 13 13 13 12 12 12 12 12 12 12 12 11 11 11 11 11 11 10 10 10 10 10 10 9 10 10 10 10 10 10 10 10 10 9
13 13 13 13 13 13 13 13 13 13 12 12 12 12 12 12 12 12 12 11 11 11 11 11 11 10 10 10 10 10 9 9 9 9 10 9 9 9 9 9 9 9 9
13 13 13 13 13 13 13 13 12 12 12 12 12 12 12 12 12 12 11 11 11 11 11 11 10 10 10 10 10 9 9 9 9 9 9 9 9 9 9 9 9 9 9
13 13 13 13 13 13 13 13 12 12 12 12 12 12 12 12 12 12 12 11 11 11 11 11 11 10 10 10 10 10 9 9 9 9 9 9 9 8 9 9 9 9 9
13 13 13 13 12 13 13 12 12 12 12 12 11 11 11 11 11 11 11 11 11 11 11 11 11 10 10 10 10 9 9 9 9 9 9 8 8 8 8 8 8 8 8
13 13 13 12 12 12 12 12 12 12 11 11 11 11 11 11 11 11 11 11 10 11 11 10 10 10 10 10 10 9 9 9 9 9 9 8 8 8 8 8 8 8 8
12 12 12 12 12 12 12 12 12 11 11 11 11 11 11 11 11 11 10 10 10 10 10 10 10 10 10 10 9 9 9 8 8 8 8 8 8 8 8 8 8 8 8
12 12 12 12 12 11 12 12 12 11 11 11 11 11 11 11 10 10 10 10 10 10 10 10 10 10 10 9 9 9 9 8 8 8 8 8 8 7 7 7 7 7 7
Wind_Speed
4 5 5 6 6 6 6 6 6 8 8 9 9 9 9 10 10 9 10 15 15 14 12 12 12 12 11 11 11 10 10 9 9 9 10 9 9 9 9 9 8 8 9
4 4 5 5 5 6 6 6 7 6 7 7 8 8 8 8 9 9 9 11 14 14 14 13 12 11 11 11 11 11 10 10 10 10 10 10 10 9 9 10 10 10 10
4 4 4 4 5 5 6 6 7 6 6 6 7 7 8 8 8 9 9 8 10 13 14 14 13 11 10 10 10 10 10 10 10 10 10 10 10 10 10 10 11 10 10
4 4 4 4 5 5 4 4 4 5 5 6 6 6 6 7 8 8 8 8 8 9 11 14 13 12 11 10 9 10 10 10 11 11 10 11 10 10 10 11 11 11 11
4 4 4 4 4 4 4 4 4 4 5 6 5 5 6 6 6 7 8 9 9 9 9 10 12 13 12 11 10 10 10 10 11 11 10 10 10 10 11 11 12 12 11
3 3 3 3 3 3 3 3 4 4 4 5 5 5 5 5 5 6 6 7 8 9 9 8 8 9 12 12 11 11 10 10 10 10 10 10 9 10 10 10 11 11 11
3 3 2 3 3 2 2 3 4 4 4 4 4 4 4 5 6 5 5 5 6 7 8 8 7 7 7 10 11 10 9 9 9 9 10 10 10 10 10 10 10 10 10
2 2 3 2 3 3 3 3 3 2 2 1 0 1 2 3 4 4 4 4 5 5 7 7 7 7 7 7 9 10 9 9 9 10 11 11 11 11 10 10 10 10 10
2 2 2 2 2 3 3 3 3 2 2 1 1 2 1 1 2 3 4 4 4 4 5 6 6 7 7 6 7 9 9 9 10 11 11 11 11 11 11 10 9 9 9
2 2 2 2 3 2 3 3 3 2 2 1 1 1 2 1 1 1 2 3 4 4 4 4 5 6 6 6 7 9 9 9 10 10 11 11 11 10 9 9 9 9 9
3 3 3 3 3 3 3 3 3 2 2 2 1 1 0 0 1 1 0 1 2 2 3 3 3 4 5 5 5 7 8 8 8 9 9 9 10 9 8 8 8 8 8
3 3 3 3 3 3 3 3 3 3 3 2 2 2 1 1 1 1 1 1 1 2 2 2 2 3 3 4 5 7 7 7 8 8 8 8 8 8 7 7 7 7 7
3 4 4 3 3 3 3 3 3 3 3 3 3 2 2 2 1 1 1 1 1 0 1 1 2 2 3 3 5 6 7 7 7 7 7 7 7 7 6 6 6 6 7
3 3 4 3 3 3 3 3 3 2 2 3 3 3 2 2 2 2 2 2 1 1 1 1 1 2 2 3 5 3 6 6 6 6 6 6 6 6 5 5 6 6 6
3 4 4 4 4 4 4 3 2 2 2 2 2 3 2 2 2 2 2 3 2 2 1 1 1 1 2 3 2 2 4 6 5 5 5 5 5 4 4 4 5 5 5
4 4 5 4 4 5 4 4 3 2 3 2 2 3 2 2 2 2 2 2 3 2 1 1 1 2 2 2 2 2 4 6 5 4 4 4 4 3 4 4 4 4 4
5 5 5 5 5 5 5 4 4 4 4 3 3 3 3 2 2 3 3 2 2 1 2 1 2 2 3 2 3 2 2 3 4 4 3 3 3 3 3 4 4 4 4
5 5 5 6 6 5 5 5 5 5 4 4 4 3 3 3 3 3 3 3 3 2 3 3 3 3 3 2 2 2 2 2 3 4 3 3 3 3 3 3 3 3 3
5 5 5 6 6 6 6 6 5 5 5 5 4 4 4 4 4 4 4 3 2 2 2 4 3 3 2 2 2 2 2 2 2 4 4 3 3 3 2 2 2 2 2
5 6 6 6 6 6 6 6 6 5 5 5 4 4 4 4 4 4 4 4 3 3 3 4 3 4 3 3 3 3 2 2 2 3 3 3 3 4 4 3 3 2 2
4 5 5 6 5 5 5 5 5 5 5 5 5 5 4 2 1 2 3 4 4 4 4 4 4 4 4 4 4 3 3 2 3 3 3 3 3 3 4 4 4 4 3
4 5 5 5 6 5 3 4 5 5 5 5 5 4 4 4 4 4 3 3 3 5 5 5 4 5 5 4 4 4 4 3 3 3 3 3 3 3 3 3 4 5 4
4 4 5 5 5 5 5 6 6 5 5 5 5 5 4 4 5 5 6 7 6 5 5 5 5 5 5 5 5 5 5 5 3 2 3 3 3 3 3 3 5 5 5
4 4 5 5 4 4 5 6 6 7 6 5 5 5 5 5 5 4 5 6 6 6 6 6 6 5 4 4 5 5 5 4 3 3 4 4 3 4 3 4 6 7 7
4 4 4 5 5 5 6 7 7 5 5 6 5 5 5 5 5 5 6 6 6 5 4 4 3 2 1 2 4 4 4 5 4 4 4 4 3 4 4 4 6 8 8
5 4 4 5 5 6 6 7 8 5 6 5 5 5 5 5 6 8 7 7 7 6 5 5 5 5 6 6 8 7 5 5 4 4 4 4 4 3 4 4 5 5 6
Wind_Direction
83 85 86 78 77 80 85 84 81 77 73 69 67 65 63 61 59 59 61 56 52 55 64 71 74 76 76 78 78 76 73 73 73 77 78 75 76 75 78 83 100 103 96
87 88 85 80 79 79 77 82 83 79 75 71 66 62 61 62 61 61 60 62 59 55 57 63 67 70 76 80 81 79 78 77 76 79 80 77 76 77 78 79 90 95 94
95 96 90 87 88 90 88 85 84 81 81 80 72 63 59 57 59 59 58 57 63 62 56 55 58 63 69 76 81 82 82 82 82 81 79 80 80 78 80 82 84 88 90
100 98 96 90 90 87 89 90 88 86 83 77 70 64 64 60 57 57 60 58 54 56 62 56 53 55 60 70 78 82 82 85 86 82 79 81 83 83 82 83 83 85 85
109 109 102 101 99 96 95 93 89 88 88 81 75 66 61 60 58 56 58 56 56 54 58 61 58 53 56 61 70 78 81 84 87 84 79 80 83 86 86 85 84 85 83
116 113 119 119 113 109 104 101 96 92 93 93 85 74 67 68 62 55 54 56 53 52 52 52 58 62 58 56 63 72 77 81 85 86 82 80 81 86 89 89 88 87 84
135 132 135 137 138 129 124 120 114 112 110 111 108 97 88 72 66 62 52 54 58 54 54 53 51 53 66 65 60 66 71 76 78 87 84 80 79 82 87 89 88 88 84
157 156 166 160 158 147 150 140 135 140 132 149 126 147 137 122 76 58 56 52 53 56 53 55 55 52 57 68 66 64 67 77 80 86 87 83 81 81 86 89 88 88 84
174 182 173 170 170 177 167 172 174 176 164 172 341 336 333 63 102 90 61 55 51 50 50 51 54 51 57 68 69 67 68 77 83 85 87 85 81 81 82 83 88 89 85
185 189 183 188 186 190 183 192 194 214 216 200 182 322 341 25 281 130 105 66 52 47 43 47 51 50 54 67 70 67 74 80 84 85 84 83 83 83 82 81 80 83 86
182 184 194 202 203 201 202 205 208 233 242 257 246 228 54 91 279 278 136 97 82 56 46 39 46 50 50 66 75 73 81 83 86 88 87 84 83 83 83 82 82 81 82
186 189 202 215 218 212 210 213 220 230 247 258 261 250 241 255 227 245 235 194 81 63 52 39 36 49 52 68 76 74 84 85 89 87 86 87 85 82 81 82 80 83 84
197 198 200 214 220 219 217 219 226 233 235 242 246 244 246 258 245 239 210 187 120 90 55 53 45 56 64 73 81 83 92 90 90 88 84 84 82 79 78 80 81 80 82
209 204 205 211 214 215 214 215 233 233 238 238 239 236 231 221 212 215 211 196 185 169 154 86 79 66 63 74 73 86 93 96 94 93 93 91 87 79 74 75 78 77 77
210 209 211 207 209 208 212 209 223 218 223 232 233 230 236 214 210 218 221 232 245 227 186 156 163 101 94 79 74 99 94 92 96 100 98 96 90 87 85 80 79 73 73
213 210 215 214 209 204 204 207 218 216 214 212 227 230 230 226 207 206 222 239 261 259 222 143 152 140 131 119 99 100 96 106 105 106 103 99 91 90 92 97 92 81 75
219 216 216 221 218 211 208 203 209 200 209 207 204 212 217 218 208 205 211 225 236 223 188 162 151 163 168 155 136 141 137 135 118 113 110 107 101 100 99 100 95 87 83
225 223 222 222 219 217 214 210 208 203 204 207 206 209 212 199 213 214 215 219 213 215 203 177 171 180 182 172 165 165 161 149 137 120 122 124 125 115 113 109 103 99 95
229 223 221 224 220 216 211 212 214 211 211 215 214 212 211 204 208 205 210 212 203 197 199 192 176 168 181 172 174 168 169 174 171 151 153 156 157 158 151 149 133 125 119
233 231 222 221 222 218 214 213 215 214 215 214 217 221 218 214 217 208 206 204 197 195 197 198 187 183 185 183 192 184 183 192 209 184 171 174 179 190 188 183 180 175 175
235 237 232 224 222 224 222 221 218 217 215 211 213 221 225 233 317 241 226 211 203 204 201 204 202 199 198 195 206 203 208 213 214 207 203 202 198 203 199 200 207 203 205
231 226 232 232 224 221 187 215 236 217 220 215 213 214 207 201 197 210 237 251 250 227 213 209 212 215 216 210 210 216 213 219 226 201 216 220 216 223 214 214 189 196 210
224 224 227 229 229 213 177 194 219 225 221 221 221 216 208 205 207 216 204 210 231 254 259 244 229 228 225 210 209 214 217 228 245 216 220 228 222 228 216 198 180 193 205
215 221 227 225 227 207 179 192 201 221 221 222 225 222 212 207 207 219 219 220 220 216 224 236 241 240 236 220 219 222 222 225 236 210 217 240 229 236 228 218 191 199 205
222 225 224 220 220 208 184 190 200 218 222 223 224 226 221 213 180 203 219 222 225 222 209 235 277 279 251 218 217 210 209 217 235 225 211 236 237 244 246 237 206 199 207
226 231 232 228 229 227 183 192 208 218 221 221 219 220 215 221 188 200 218 221 225 223 212 206 216 216 216 205 207 219 221 228 237 235 204 223 235 240 248 230 224 217 217
Height
1556 1556 1556 1555 1555 1555 1555 1555 1555 1555 1555 1555 1554 1554 1554 1553 1553 1552 1552 1551 1550 1549 1549 1548 1547 1547 1547 1546 1546 1545 1545 1544 1543 1543 1542 1541 1540 1539 1537 1532 1533 1537 1540
1557 1557 1557 1557 1557 1557 1556 1556 1557 1556 1556 1556 1555 1555 1555 1555 1554 1554 1553 1552 1551 1551 1550 1549 1549 1548 1548 1547 1547 1546 1545 1545 1544 1543 1543 1542 1541 1540 1538 1535 1536 1538 1540
1558 1558 1558 1558 1558 1558 1558 1558 1557 1557 1557 1557 1556 1556 1556 1556 1556 1555 1555 1554 1553 1552 1552 1551 1550 1550 1549 1548 1548 1547 1546 1545 1545 1544 1544 1543 1542 1542 1541 1540 1540 1541 1542
1559 1559 1559 1559 1559 1559 1559 1558 1558 1558 1558 1558 1558 1557 1557 1556 1556 1556 1556 1555 1554 1554 1553 1552 1552 1551 1550 1549 1549 1548 1547 1547 1546 1546 1545 1544 1544 1543 1543 1542 1543 1543 1543
1560 1560 1560 1560 1560 1560 1560 1560 1559 1559 1559 1559 1558 1558 1558 1557 1557 1557 1557 1556 1555 1555 1554 1553 1552 1552 1551 1550 1550 1549 1549 1548 1547 1547 1546 1545 1545 1545 1544 1544 1544 1544 1544
1560 1560 1560 1561 1561 1561 1560 1560 1560 1560 1560 1559 1559 1559 1559 1558 1558 1558 1557 1557 1556 1556 1555 1554 1553 1553 1552 1551 1551 1550 1549 1549 1549 1548 1547 1546 1546 1546 1545 1545 1545 1545 1545
1560 1560 1560 1561 1561 1561 1561 1561 1561 1561 1560 1560 1561 1560 1560 1560 1559 1558 1558 1558 1557 1556 1556 1555 1554 1553 1552 1552 1551 1551 1550 1550 1549 1549 1548 1548 1547 1546 1546 1546 1546 1546 1546
1560 1560 1561 1561 1561 1561 1561 1561 1561 1561 1561 1561 1562 1561 1562 1562 1560 1559 1559 1558 1558 1557 1556 1555 1554 1554 1553 1552 1552 1551 1551 1550 1550 1550 1549 1548 1548 1547 1547 1547 1547 1547 1546
1560 1560 1560 1561 1561 1561 1561 1561 1561 1561 1561 1561 1562 1562 1562 1561 1562 1561 1560 1559 1558 1557 1556 1556 1555 1554 1553 1553 1552 1552 1551 1551 1551 1550 1550 1549 1549 1548 1548 1548 1548 1547 1547
1559 1559 1560 1560 1561 1561 1561 1561 1561 1561 1561 1561 1561 1561 1562 1561 1562 1561 1561 1560 1558 1557 1557 1556 1555 1554 1553 1553 1552 1552 1552 1551 1551 1551 1550 1550 1549 1549 1549 1549 1548 1548 1548
1558 1559 1559 1559 1560 1560 1560 1560 1560 1560 1560 1561 1561 1560 1560 1560 1561 1561 1561 1560 1559 1558 1557 1556 1555 1554 1554 1553 1553 1552 1552 1552 1552 1551 1551 1551 1550 1550 1550 1550 1549 1549 1549
1557 1558 1558 1558 1559 1559 1559 1559 1559 1559 1559 1559 1560 1560 1560 1560 1560 1560 1560 1560 1559 1558 1557 1556 1556 1555 1554 1554 1553 1553 1553 1552 1552 1552 1551 1551 1551 1551 1551 1550 1550 1550 1549
1556 1556 1557 1557 1557 1558 1558 1558 1558 1558 1558 1558 1558 1558 1559 1559 1559 1559 1559 1559 1559 1558 1557 1557 1556 1555 1554 1554 1553 1553 1553 1552 1552 1552 1552 1552 1552 1551 1551 1551 1551 1550 1550
1555 1555 1555 1556 1556 1556 1557 1557 1557 1557 1557 1557 1557 1557 1557 1557 1557 1558 1558 1558 1558 1558 1558 1557 1556 1555 1555 1554 1553 1553 1553 1552 1552 1552 1552 1552 1552 1552 1551 1551 1551 1550 1550
1554 1554 1554 1554 1554 1555 1555 1556 1556 1556 1556 1556 1556 1556 1556 1556 1556 1556 1557 1557 1558 1557 1557 1557 1556 1555 1555 1554 1553 1554 1553 1553 1552 1553 1552 1552 1552 1552 1551 1551 1551 1550 1550
1552 1552 1552 1553 1553 1553 1554 1554 1554 1554 1554 1554 1554 1554 1555 1555 1555 1555 1555 1555 1556 1557 1556 1556 1555 1554 1554 1554 1553 1553 1553 1553 1552 1552 1552 1552 1552 1551 1551 1551 1550 1550 1549
1550 1550 1551 1551 1551 1552 1552 1552 1552 1552 1553 1553 1553 1553 1553 1553 1553 1554 1554 1554 1554 1555 1555 1554 1554 1554 1554 1554 1553 1553 1553 1552 1552 1552 1552 1551 1551 1551 1550 1550 1549 1549 1549
1547 1548 1548 1549 1549 1550 1550 1551 1551 1551 1551 1551 1552 1552 1552 1552 1552 1552 1552 1552 1553 1553 1554 1553 1553 1553 1553 1553 1552 1552 1552 1552 1552 1551 1551 1550 1550 1549 1549 1549 1548 1548 1547
1545 1545 1545 1546 1547 1547 1548 1548 1549 1549 1549 1549 1550 1550 1550 1550 1550 1550 1550 1551 1551 1551 1551 1552 1552 1551 1551 1551 1551 1551 1551 1551 1550 1550 1549 1549 1549 1548 1548 1547 1547 1546 1546
1542 1542 1543 1543 1544 1545 1545 1546 1546 1547 1547 1547 1547 1547 1548 1548 1549 1549 1549 1549 1549 1549 1550 1550 1550 1550 1550 1550 1550 1550 1550 1549 1549 1549 1548 1547 1547 1547 1546 1545 1545 1544 1544
1538 1539 1540 1540 1541 1541 1542 1543 1544 1544 1544 1544 1545 1545 1545 1546 1546 1546 1547 1547 1547 1548 1548 1548 1548 1548 1548 1548 1548 1548 1548 1547 1547 1547 1546 1546 1545 1545 1544 1543 1543 1542 1542
1535 1535 1536 1537 1537 1538 1538 1539 1540 1541 1541 1542 1542 1542 1542 1543 1543 1544 1544 1544 1545 1546 1546 1546 1546 1546 1546 1546 1546 1546 1546 1546 1546 1545 1545 1544 1544 1543 1542 1542 1541 1540 1539
1531 1532 1533 1533 1534 1534 1535 1536 1536 1537 1538 1539 1539 1539 1539 1540 1540 1541 1541 1541 1542 1542 1543 1543 1544 1544 1544 1543 1543 1543 1543 1543 1543 1542 1542 1542 1541 1541 1540 1539 1538 1538 1537
1528 1528 1529 1529 1530 1530 1531 1532 1533 1534 1535 1535 1536 1536 1536 1537 1537 1538 1538 1538 1539 1539 1539 1540 1540 1541 1541 1541 1540 1541 1540 1540 1540 1539 1539 1540 1539 1538 1537 1537 1535 1535 1534
1525 1525 1526 1526 1526 1527 1527 1528 1529 1531 1531 1532 1532 1532 1533 1533 1533 1534 1535 1535 1536 1536 1536 1536 1537 1537 1537 1537 1537 1537 1537 1537 1537 1537 1536 1536 1536 1535 1535 1534 1533 1532 1531
1521 1522 1522 1522 1523 1523 1524 1524 1526 1527 1528 1528 1529 1529 1529 1529 1530 1530 1531 1532 1532 1533 1533 1533 1533 1533 1533 1533 1534 1534 1534 1534 1534 1534 1533 1533 1532 1532 1531 1531 1530 1529 1528